Weather History for Great Bend, KS

Change the Weather History Date:

Saturday, May 11, 2013

  Actual Average Record
Temperature  
Mean Temperature 56 °F -  
Max Temperature 66 °F 78 °F 97 °F (1970)
Min Temperature 46 °F 53 °F 34 °F (1979)
Degree Days  
Heating Degree Days 9    
Growing Degree Days 6 (Base 50)    
Moisture  
Dew Point 40 °F    
Average Humidity 57    
Maximum Humidity 87    
Minimum Humidity 28    
Precipitation  
Precipitation 0.00 in - - ()
Sea Level Pressure  
Sea Level Pressure 30.23 in    
Wind  
Wind Speed 10 mph (North)    
Max Wind Speed 25 mph    
Max Gust Speed 32 mph    
Visibility 10 miles    
Events      
Averages and records for this station are not official NWS values.
T = Trace of Precipitation, MM = Missing Value Source: NWS Daily Summary

Daily Weather History Graph

Daily Weather History Graph

Search for Another Location

Airport:

Trip Planner

Search our weather history database for the weather conditions in past years. The results will help you decide how hot, cold, wet, or windy it might be!

Date:

Astronomy

May. 11, 2013 Rise Set
Actual Time 6:27 AM CDT 8:36 PM CDT
Civil Twilight 5:58 AM CDT 9:05 PM CDT
Nautical Twilight 5:22 AM CDT 9:42 PM CDT
Astronomical Twilight 4:43 AM CDT 10:21 PM CDT
Moon 7:37 AM CDT (5/11) 10:17 PM CDT (5/11)
Length of Visible Light 15h 07m
Length of Day
14h 08m
Waxing Crescent, 3% of the Moon is Illuminated
May 11
Waxing Crescent
May 17
First Quarter
May 24
Full
May 31
Last Quarter
Jun 8
New

Hourly Weather History & Observations

Time (CDT) Temp. Windchill Dew Point Humidity Pressure Visibility Wind Dir Wind Speed Gust Speed Precip Events Conditions
12:15 AM 53.6 °F - 46.4 °F 77% 30.12 in 10.0 mi SW 4.6 mph - N/A   Clear
12:35 AM 53.6 °F - 46.4 °F 77% 30.12 in 10.0 mi SW 3.5 mph - N/A   Clear
12:55 AM 48.2 °F - 44.6 °F 87% 30.13 in 10.0 mi WSW 3.5 mph - N/A   Clear
1:15 AM 50.0 °F - 44.6 °F 82% 30.13 in 10.0 mi West 3.5 mph - N/A   Clear
1:35 AM 50.0 °F - 44.6 °F 82% 30.13 in 10.0 mi West 3.5 mph - N/A   Clear
1:55 AM 50.0 °F - 44.6 °F 82% 30.13 in 10.0 mi West 4.6 mph - N/A   Clear
2:15 AM 48.2 °F - 44.6 °F 87% 30.13 in 10.0 mi Calm Calm - N/A   Clear
2:35 AM 50.0 °F - 44.6 °F 82% 30.13 in 10.0 mi WSW 6.9 mph - N/A   Clear
2:55 AM 48.2 °F - 44.6 °F 87% 30.13 in 10.0 mi WSW 6.9 mph - N/A   Clear
3:15 AM 48.2 °F - 44.6 °F 87% 30.13 in 10.0 mi WSW 5.8 mph - N/A   Clear
3:35 AM 48.2 °F - 42.8 °F 82% 30.12 in 10.0 mi WSW 6.9 mph - N/A   Clear
3:55 AM 48.2 °F - 42.8 °F 82% 30.12 in 10.0 mi West 8.1 mph - N/A   Clear
4:15 AM 48.2 °F - 44.6 °F 87% 30.12 in 10.0 mi West 9.2 mph - N/A   Clear
4:35 AM 50.0 °F - 44.6 °F 82% 30.12 in 10.0 mi WNW 10.4 mph - N/A   Clear
4:55 AM 48.2 °F - 44.6 °F 87% 30.12 in 10.0 mi WNW 9.2 mph - N/A   Clear
5:15 AM 50.0 °F - 46.4 °F 87% 30.12 in 10.0 mi NW 6.9 mph - N/A   Clear
5:35 AM 50.0 °F - 44.6 °F 82% 30.13 in 10.0 mi NW 10.4 mph - N/A   Clear
5:55 AM 50.0 °F - 44.6 °F 82% 30.14 in 10.0 mi NW 9.2 mph - N/A   Clear
6:15 AM 50.0 °F - 44.6 °F 82% 30.14 in 10.0 mi NW 9.2 mph - N/A   Clear
6:35 AM 50.0 °F - 46.4 °F 87% 30.16 in 10.0 mi NNW 10.4 mph - N/A   Clear
6:55 AM 51.8 °F - 44.6 °F 76% 30.17 in 10.0 mi NNW 12.7 mph - N/A   Clear
7:15 AM 51.8 °F - 44.6 °F 76% 30.19 in 10.0 mi North 13.8 mph - N/A   Clear
7:35 AM 51.8 °F - 44.6 °F 76% 30.20 in 10.0 mi North 13.8 mph - N/A   Clear
7:55 AM 53.6 °F - 44.6 °F 72% 30.21 in 10.0 mi NNE 17.3 mph 21.9 mph N/A   Clear
8:15 AM 53.6 °F - 46.4 °F 77% 30.22 in 10.0 mi North 20.7 mph 27.6 mph N/A   Clear
8:35 AM 55.4 °F - 44.6 °F 67% 30.24 in 10.0 mi NNE 24.2 mph 28.8 mph N/A   Clear
8:55 AM 55.4 °F - 44.6 °F 67% 30.24 in 10.0 mi NE 21.9 mph 25.3 mph N/A   Clear
9:15 AM 57.2 °F - 44.6 °F 63% 30.26 in 10.0 mi NE 23.0 mph 29.9 mph N/A   Clear
9:35 AM 57.2 °F - 44.6 °F 63% 30.27 in 10.0 mi NE 20.7 mph 26.5 mph N/A   Clear
9:55 AM 59.0 °F - 42.8 °F 55% 30.28 in 10.0 mi NE 23.0 mph 32.2 mph N/A   Clear
10:15 AM 59.0 °F - 41.0 °F 51% 30.28 in 10.0 mi NE 21.9 mph 31.1 mph N/A   Clear
10:35 AM 60.8 °F - 39.2 °F 45% 30.29 in 10.0 mi NNE 24.2 mph 29.9 mph N/A   Clear
10:55 AM 60.8 °F - 39.2 °F 45% 30.29 in 10.0 mi NE 23.0 mph 27.6 mph N/A   Partly Cloudy
11:15 AM 62.6 °F - 39.2 °F 42% 30.30 in 10.0 mi NE 24.2 mph 29.9 mph N/A   Clear
11:35 AM 62.6 °F - 39.2 °F 42% 30.30 in 10.0 mi NNE 20.7 mph 28.8 mph N/A   Clear
11:55 AM 62.6 °F - 37.4 °F 39% 30.31 in 10.0 mi NNE 25.3 mph 31.1 mph N/A   Clear
12:15 PM 62.6 °F - 39.2 °F 42% 30.31 in 10.0 mi NE 15.0 mph 28.8 mph N/A   Clear
12:35 PM 62.6 °F - 39.2 °F 42% 30.31 in 10.0 mi NE 20.7 mph 26.5 mph N/A   Clear
12:55 PM 62.6 °F - 39.2 °F 42% 30.31 in 10.0 mi North 19.6 mph 24.2 mph N/A   Clear
1:15 PM 64.4 °F - 41.0 °F 42% 30.30 in 10.0 mi North 18.4 mph 25.3 mph N/A   Clear
1:35 PM 64.4 °F - 41.0 °F 42% 30.30 in 10.0 mi North 13.8 mph 26.5 mph N/A   Clear
1:55 PM 64.4 °F - 42.8 °F 45% 30.30 in 10.0 mi NNE 16.1 mph 24.2 mph N/A   Clear
2:15 PM 64.4 °F - 39.2 °F 40% 30.30 in 10.0 mi North 21.9 mph 26.5 mph N/A   Clear
2:35 PM 64.4 °F - 37.4 °F 37% 30.30 in 10.0 mi NNE 17.3 mph 25.3 mph N/A   Clear
2:55 PM 64.4 °F - 37.4 °F 37% 30.30 in 10.0 mi North 13.8 mph 25.3 mph N/A   Clear
3:15 PM 66.2 °F - 37.4 °F 35% 30.29 in 10.0 mi North 18.4 mph 23.0 mph N/A   Clear
3:35 PM 66.2 °F - 35.6 °F 32% 30.29 in 10.0 mi North 12.7 mph 24.2 mph N/A   Clear
3:55 PM 64.4 °F - 33.8 °F 32% 30.28 in 10.0 mi North 13.8 mph 25.3 mph N/A   Clear
4:15 PM 66.2 °F - 33.8 °F 30% 30.28 in 10.0 mi North 18.4 mph 21.9 mph N/A   Clear
4:35 PM 66.2 °F - 33.8 °F 30% 30.27 in 10.0 mi North 18.4 mph 23.0 mph N/A   Clear
4:55 PM 64.4 °F - 30.2 °F 28% 30.27 in 10.0 mi North 15.0 mph 18.4 mph N/A   Clear
5:15 PM 64.4 °F - 32.0 °F 30% 30.26 in 10.0 mi North 13.8 mph - N/A   Clear
5:35 PM 64.4 °F - 32.0 °F 30% 30.26 in 10.0 mi NNE 16.1 mph 20.7 mph N/A   Clear
5:55 PM 64.4 °F - 30.2 °F 28% 30.26 in 10.0 mi North 10.4 mph 17.3 mph N/A   Clear
6:15 PM 64.4 °F - 32.0 °F 30% 30.26 in 10.0 mi North 10.4 mph 17.3 mph N/A   Clear
6:35 PM 64.4 °F - 33.8 °F 32% 30.25 in 10.0 mi NNE 15.0 mph - N/A   Clear
6:55 PM 64.4 °F - 32.0 °F 30% 30.25 in 10.0 mi NE 10.4 mph 16.1 mph N/A   Clear
7:15 PM 64.4 °F - 30.2 °F 28% 30.25 in 10.0 mi NNE 9.2 mph - N/A   Clear
7:35 PM 62.6 °F - 30.2 °F 30% 30.25 in 10.0 mi NE 8.1 mph - N/A   Clear
7:55 PM 62.6 °F - 32.0 °F 32% 30.25 in 10.0 mi NE 6.9 mph - N/A   Clear
8:15 PM 60.8 °F - 33.8 °F 36% 30.25 in 10.0 mi NE 4.6 mph - N/A   Clear
8:35 PM 60.8 °F - 33.8 °F 36% 30.25 in 10.0 mi NE 4.6 mph - N/A   Clear
8:55 PM 59.0 °F - 35.6 °F 42% 30.25 in 10.0 mi ENE 3.5 mph - N/A   Clear
9:15 PM 57.2 °F - 35.6 °F 44% 30.26 in 10.0 mi Calm Calm - N/A   Clear
9:35 PM 53.6 °F - 37.4 °F 54% 30.26 in 10.0 mi Calm Calm - N/A   Clear
9:55 PM 51.8 °F - 35.6 °F 54% 30.26 in 10.0 mi Calm Calm - N/A   Clear
10:15 PM 51.8 °F - 35.6 °F 54% 30.27 in 10.0 mi SE 3.5 mph - N/A   Clear
10:35 PM 48.2 °F - 35.6 °F 62% 30.28 in 10.0 mi South 5.8 mph - N/A   Clear
10:55 PM 48.2 °F - 37.4 °F 66% 30.28 in 10.0 mi SSW 4.6 mph - N/A   Clear
11:15 PM 46.4 °F 45.2 °F 37.4 °F 71% 30.28 in 10.0 mi SSW 3.5 mph - N/A   Clear
11:35 PM 46.4 °F 45.2 °F 35.6 °F 66% 30.28 in 10.0 mi SSW 3.5 mph - N/A   Clear
11:55 PM 46.4 °F 45.2 °F 35.6 °F 66% 30.27 in 10.0 mi South 3.5 mph - N/A   Clear